When you browse on this site, cookies collect data to enhance your experience and personalize the content and advertising you see.
Visit our Privacy Policy to learn more. By continuing to use the site, you agree to this use of cookies and data.
  • In Portugal
  • List of Countries
  • For 7 days
  • Water Temperature
  • Satellite Maps
  • Weather Map
  • Weather Widgets
  • user-avatar
    Login

    Hourly Weather Kalgoorlie

    Today, 22 January, Tuesday

    Time Temperature Precipitation Wind Pressure Humidity
    00:00 +37°C° 0 mm 5 mps 724 mmHg 20%
    01:00 +38°C° 0 mm 6 mps 724 mmHg 21%
    02:00 +36°C° 0 mm 6 mps 724 mmHg 22%
    03:00 +35°C° 0 mm 6 mps 724 mmHg 23%
    04:00 +35°C° 0 mm 5 mps 723 mmHg 24%
    05:00 +34°C° 0 mm 5 mps 723 mmHg 25%
    06:00 +35°C° 0 mm 6 mps 723 mmHg 24%
    07:00 +38°C° 0 mm 7 mps 723 mmHg 23%
    08:00 +38°C° 0 mm 7 mps 723 mmHg 27%
    09:00 +40°C° 0 mm 7 mps 723 mmHg 23%
    10:00 +43°C° 0 mm 7 mps 723 mmHg 18%
    11:00 +46°C° 0 mm 7 mps 722 mmHg 14%
    12:00 +46°C° 0 mm 7 mps 721 mmHg 13%
    13:00 +47°C° 0 mm 6 mps 721 mmHg 11%
    14:00 +49°C° 0 mm 7 mps 720 mmHg 11%
    15:00 +49°C° 0 mm 7 mps 720 mmHg 11%
    16:00 +48°C° 0 mm 6 mps 719 mmHg 11%
    17:00 +48°C° 0 mm 6 mps 719 mmHg 11%
    18:00 +47°C° 0 mm 6 mps 719 mmHg 12%
    19:00 +45°C° 0 mm 5 mps 719 mmHg 13%
    20:00 +41°C° 0 mm 7 mps 719 mmHg 21%
    21:00 +37°C° 0.1 mm 8 mps 719 mmHg 34%
    22:00 +32°C° 0.1 mm 9 mps 719 mmHg 47%
    23:00 +27°C° 0.1 mm 9 mps 719 mmHg 60%

    Tomorrow, 23 January, Wednesday

    Time Temperature Precipitation Wind Pressure Humidity
    00:00 +27°C° 0.6 mm 7 mps 719 mmHg 61%
    01:00 +27°C° 0.6 mm 6 mps 719 mmHg 62%
    02:00 +27°C° 0.6 mm 4 mps 719 mmHg 63%
    03:00 +27°C° 0.2 mm 3 mps 719 mmHg 62%
    04:00 +27°C° 0.2 mm 2 mps 719 mmHg 61%
    05:00 +27°C° 0.2 mm 2 mps 719 mmHg 60%
    06:00 +28°C° 0 mm 3 mps 720 mmHg 57%
    07:00 +29°C° 0 mm 5 mps 721 mmHg 53%
    08:00 +30°C° 0 mm 6 mps 721 mmHg 49%
    09:00 +32°C° 0 mm 6 mps 721 mmHg 45%
    10:00 +32°C° 0 mm 6 mps 721 mmHg 41%
    11:00 +33°C° 0 mm 6 mps 721 mmHg 36%
    12:00 +35°C° 0 mm 7 mps 721 mmHg 30%
    13:00 +38°C° 0 mm 8 mps 721 mmHg 23%
    14:00 +40°C° 0 mm 10 mps 721 mmHg 17%
    15:00 +39°C° 0 mm 10 mps 721 mmHg 15%
    16:00 +38°C° 0 mm 10 mps 721 mmHg 14%
    17:00 +37°C° 0 mm 10 mps 721 mmHg 13%
    18:00 +34°C° 0 mm 10 mps 721 mmHg 14%
    19:00 +32°C° 0 mm 10 mps 722 mmHg 16%
    20:00 +31°C° 0 mm 10 mps 722 mmHg 18%
    21:00 +28°C° 0 mm 10 mps 722 mmHg 24%
    22:00 +26°C° 0 mm 10 mps 723 mmHg 30%
    23:00 +24°C° 0 mm 10 mps 723 mmHg 36%

    Day after tomorrow, 24 January, Thursday

    Time Temperature Precipitation Wind Pressure Humidity
    00:00 +23°C° 0 mm 10 mps 723 mmHg 43%
    01:00 +21°C° 0 mm 10 mps 723 mmHg 49%
    02:00 +19°C° 0 mm 9 mps 724 mmHg 56%
    03:00 +19°C° 0 mm 9 mps 724 mmHg 56%
    04:00 +18°C° 0 mm 8 mps 724 mmHg 57%
    05:00 +18°C° 0 mm 8 mps 724 mmHg 58%
    06:00 +18°C° 0 mm 7 mps 725 mmHg 55%
    07:00 +20°C° 0 mm 7 mps 725 mmHg 51%
    08:00 +21°C° 0 mm 7 mps 726 mmHg 48%
    09:00 +23°C° 0 mm 6 mps 726 mmHg 43%
    10:00 +26°C° 0 mm 6 mps 726 mmHg 38%
    11:00 +27°C° 0 mm 6 mps 726 mmHg 33%
    12:00 +29°C° 0 mm 6 mps 726 mmHg 29%
    13:00 +30°C° 0 mm 5 mps 725 mmHg 25%
    14:00 +33°C° 0 mm 5 mps 725 mmHg 21%
    15:00 +33°C° 0 mm 5 mps 725 mmHg 21%
    16:00 +34°C° 0 mm 5 mps 725 mmHg 21%
    17:00 +34°C° 0 mm 4 mps 725 mmHg 20%
    18:00 +33°C° 0 mm 6 mps 725 mmHg 24%
    19:00 +30°C° 0 mm 7 mps 726 mmHg 29%
    20:00 +29°C° 0 mm 8 mps 727 mmHg 33%
    21:00 +27°C° 0 mm 8 mps 727 mmHg 40%
    22:00 +24°C° 0 mm 9 mps 727 mmHg 46%
    23:00 +22°C° 0 mm 9 mps 728 mmHg 53%

    25 January, Friday

    Time Temperature Precipitation Wind Pressure Humidity
    00:00 +21°C° 0 mm 8 mps 728 mmHg 58%
    01:00 +20°C° 0 mm 8 mps 728 mmHg 62%
    02:00 +18°C° 0 mm 7 mps 727 mmHg 66%
    03:00 +17°C° 0 mm 7 mps 728 mmHg 67%
    04:00 +17°C° 0 mm 7 mps 728 mmHg 69%
    05:00 +17°C° 0 mm 6 mps 728 mmHg 71%
    06:00 +17°C° 0 mm 6 mps 729 mmHg 67%
    07:00 +19°C° 0 mm 6 mps 729 mmHg 63%
    08:00 +20°C° 0 mm 6 mps 730 mmHg 59%
    09:00 +22°C° 0 mm 5 mps 729 mmHg 53%
    10:00 +25°C° 0 mm 5 mps 729 mmHg 47%
    11:00 +27°C° 0 mm 4 mps 729 mmHg 40%
    12:00 +28°C° 0 mm 4 mps 728 mmHg 36%
    13:00 +30°C° 0 mm 3 mps 728 mmHg 32%
    14:00 +31°C° 0 mm 3 mps 727 mmHg 27%
    15:00 +32°C° 0 mm 2 mps 727 mmHg 26%
    16:00 +32°C° 0 mm 2 mps 727 mmHg 24%
    17:00 +34°C° 0 mm 2 mps 726 mmHg 22%
    18:00 +32°C° 0 mm 2 mps 727 mmHg 23%
    19:00 +33°C° 0 mm 3 mps 727 mmHg 23%
    20:00 +33°C° 0 mm 3 mps 728 mmHg 24%
    21:00 +32°C° 0 mm 4 mps 728 mmHg 24%
    22:00 +30°C° 0 mm 5 mps 728 mmHg 25%
    23:00 +30°C° 0 mm 6 mps 729 mmHg 25%

    26 January, Saturday

    Time Temperature Precipitation Wind Pressure Humidity
    00:00 +28°C° 0 mm 6 mps 728 mmHg 34%
    01:00 +24°C° 0 mm 7 mps 728 mmHg 42%
    02:00 +22°C° 0 mm 8 mps 728 mmHg 50%
    03:00 +22°C° 0 mm 7 mps 728 mmHg 53%
    04:00 +21°C° 0 mm 7 mps 728 mmHg 56%
    05:00 +20°C° 0 mm 7 mps 729 mmHg 60%
    06:00 +20°C° 0 mm 7 mps 729 mmHg 58%
    07:00 +21°C° 0 mm 7 mps 730 mmHg 56%
    08:00 +22°C° 0 mm 7 mps 730 mmHg 54%
    09:00 +24°C° 0 mm 6 mps 730 mmHg 48%
    10:00 +27°C° 0 mm 6 mps 730 mmHg 42%
    11:00 +29°C° 0 mm 6 mps 730 mmHg 36%
    12:00 +32°C° 0 mm 5 mps 729 mmHg 32%
    13:00 +33°C° 0 mm 5 mps 729 mmHg 29%
    14:00 +35°C° 0 mm 5 mps 728 mmHg 26%
    15:00 +35°C° 0 mm 5 mps 728 mmHg 24%
    16:00 +35°C° 0 mm 4 mps 728 mmHg 22%
    17:00 +36°C° 0 mm 4 mps 728 mmHg 21%
    18:00 +35°C° 0 mm 5 mps 729 mmHg 20%
    19:00 +34°C° 0 mm 5 mps 729 mmHg 19%
    20:00 +33°C° 0 mm 6 mps 729 mmHg 19%
    21:00 +30°C° 0 mm 7 mps 730 mmHg 23%
    22:00 +29°C° 0 mm 9 mps 730 mmHg 27%
    23:00 +27°C° 0 mm 11 mps 730 mmHg 31%

    27 January, Sunday

    Time Temperature Precipitation Wind Pressure Humidity
    00:00 +24°C° 0 mm 10 mps 730 mmHg 39%
    01:00 +22°C° 0 mm 9 mps 730 mmHg 47%
    02:00 +19°C° 0 mm 9 mps 730 mmHg 55%
    03:00 +20°C° 0 mm 8 mps 730 mmHg 56%
    04:00 +18°C° 0 mm 7 mps 730 mmHg 58%
    05:00 +18°C° 0 mm 7 mps 730 mmHg 60%
    06:00 +20°C° 0 mm 7 mps 730 mmHg 57%
    07:00 +21°C° 0 mm 6 mps 731 mmHg 53%
    08:00 +22°C° 0 mm 6 mps 731 mmHg 50%
    09:00 +24°C° 0 mm 6 mps 731 mmHg 44%
    10:00 +27°C° 0 mm 5 mps 731 mmHg 38%
    11:00 +30°C° 0 mm 5 mps 730 mmHg 31%
    12:00 +32°C° 0 mm 4 mps 730 mmHg 28%
    13:00 +33°C° 0 mm 3 mps 729 mmHg 25%
    14:00 +35°C° 0 mm 3 mps 728 mmHg 21%
    15:00 +35°C° 0 mm 3 mps 728 mmHg 20%
    16:00 +35°C° 0 mm 3 mps 728 mmHg 18%
    17:00 +36°C° 0 mm 3 mps 727 mmHg 17%
    18:00 +35°C° 0 mm 3 mps 728 mmHg 18%
    19:00 +34°C° 0 mm 3 mps 728 mmHg 18%
    20:00 +34°C° 0 mm 4 mps 728 mmHg 19%
    21:00 +33°C° 0 mm 3 mps 728 mmHg 19%
    22:00 +31°C° 0 mm 3 mps 729 mmHg 20%
    23:00 +31°C° 0 mm 3 mps 729 mmHg 21%
    Show more